Weather History for Decatur, AL

Change the Weather History Date:

Sunday, July 7, 2013

  Actual Average Record
Temperature  
Mean Temperature 79 °F -  
Max Temperature 89 °F 89 °F 104 °F (1954)
Min Temperature 71 °F 66 °F 54 °F (1972)
Cooling Degree Days 14    
Growing Degree Days 29 (Base 50)    
Moisture  
Dew Point 71 °F    
Average Humidity 85    
Maximum Humidity 100    
Minimum Humidity 55    
Precipitation  
Precipitation 0.03 in - - ()
Sea Level Pressure  
Sea Level Pressure 30.11 in    
Wind  
Wind Speed 1 mph (South)    
Max Wind Speed 10 mph    
Max Gust Speed -    
Visibility 9 miles    
Events Rain    
Averages and records for this station are not official NWS values.
T = Trace of Precipitation, MM = Missing Value Source: NWS Daily Summary

Daily Weather History Graph

Daily Weather History Graph

Search for Another Location

Airport:

Trip Planner

Search our weather history database for the weather conditions in past years. The results will help you decide how hot, cold, wet, or windy it might be!

Date:

Astronomy

Jul. 07, 2013 Rise Set
Actual Time 5:41 AM CDT 8:03 PM CDT
Civil Twilight 5:12 AM CDT 8:33 PM CDT
Nautical Twilight 4:36 AM CDT 9:08 PM CDT
Astronomical Twilight 3:57 AM CDT 9:48 PM CDT
Moon 5:14 AM CDT (7/7) 7:30 PM CDT (7/7)
Length of Visible Light 15h 20m
Length of Day
14h 22m
Waning Crescent, 0% of the Moon is Illuminated
Jul 7
Waning Crescent
Jul 8
New
Jul 15
First Quarter
Jul 22
Full
Jul 29
Last Quarter

Hourly Weather History & Observations

Time (CDT) Temp. Heat Index Dew Point Humidity Pressure Visibility Wind Dir Wind Speed Gust Speed Precip Events Conditions
12:07 AM 71.6 °F - 69.8 °F 94% 30.11 in 10.0 mi Calm Calm - N/A   Overcast
12:21 AM 71.6 °F - 69.8 °F 94% 30.11 in 10.0 mi Calm Calm - N/A   Overcast
12:53 AM 71.1 °F - 69.1 °F 93% 30.09 in 10.0 mi Calm Calm - N/A   Overcast
1:29 AM 71.6 °F - 69.8 °F 94% 30.10 in 9.0 mi Calm Calm - N/A   Overcast
1:53 AM 71.1 °F - 69.1 °F 93% 30.08 in 10.0 mi Calm Calm - N/A   Overcast
2:53 AM 71.1 °F - 69.1 °F 93% 30.08 in 10.0 mi Calm Calm - N/A   Overcast
3:04 AM 71.6 °F - 69.8 °F 94% 30.10 in 10.0 mi Calm Calm - N/A   Overcast
3:53 AM 71.1 °F - 69.1 °F 93% 30.08 in 7.0 mi Calm Calm - 0.01 in Rain Light Rain
4:53 AM 71.1 °F - 70.0 °F 96% 30.08 in 10.0 mi Calm Calm - 0.00 in   Overcast
5:13 AM 71.6 °F - 69.8 °F 94% 30.10 in 9.0 mi Calm Calm - 0.00 in   Overcast
5:40 AM 71.6 °F - 69.8 °F 94% 30.11 in 9.0 mi Calm Calm - 0.00 in   Overcast
5:53 AM 71.1 °F - 70.0 °F 96% 30.09 in 9.0 mi Calm Calm - 0.00 in   Overcast
6:13 AM 71.6 °F - 69.8 °F 94% 30.11 in 4.0 mi ESE 3.5 mph - 0.01 in Rain Light Rain
6:26 AM 71.6 °F - 69.8 °F 94% 30.11 in 3.0 mi SE 4.6 mph - 0.02 in Rain Light Rain
6:53 AM 71.1 °F - 70.0 °F 96% 30.10 in 7.0 mi SSE 4.6 mph - 0.02 in   Overcast
7:02 AM 71.6 °F - 69.8 °F 94% 30.12 in 8.0 mi SSE 4.6 mph - N/A   Overcast
7:51 AM 71.6 °F - 71.6 °F 100% 30.14 in 10.0 mi South 4.6 mph - N/A   Overcast
7:53 AM 72.0 °F - 71.1 °F 97% 30.12 in 10.0 mi South 4.6 mph - N/A   Overcast
8:02 AM 73.4 °F - 71.6 °F 94% 30.14 in 10.0 mi South 4.6 mph - N/A   Overcast
8:20 AM 73.4 °F - 71.6 °F 94% 30.14 in 10.0 mi South 3.5 mph - N/A   Mostly Cloudy
8:46 AM 73.4 °F - 71.6 °F 94% 30.15 in 10.0 mi South 5.8 mph - N/A   Mostly Cloudy
8:53 AM 75.0 °F - 71.1 °F 87% 30.13 in 10.0 mi Calm Calm - N/A   Mostly Cloudy
9:23 AM 75.2 °F - 71.6 °F 89% 30.15 in 10.0 mi South 4.6 mph - N/A   Overcast
9:50 AM 77.0 °F - 71.6 °F 83% 30.15 in 10.0 mi Calm Calm - N/A   Overcast
9:53 AM 77.0 °F - 71.1 °F 82% 30.13 in 10.0 mi SW 3.5 mph - N/A   Overcast
10:07 AM 75.2 °F - 69.8 °F 83% 30.15 in 10.0 mi Calm Calm - N/A   Overcast
10:22 AM 78.8 °F - 71.6 °F 78% 30.15 in 10.0 mi Calm Calm - N/A   Overcast
10:53 AM 80.1 °F 82.9 °F 69.1 °F 69% 30.13 in 10.0 mi Calm Calm - N/A   Overcast
11:26 AM 78.8 °F - 69.8 °F 74% 30.15 in 10.0 mi WSW 3.5 mph - N/A   Overcast
11:44 AM 80.6 °F 84.6 °F 71.6 °F 74% 30.15 in 10.0 mi Calm Calm - N/A   Overcast
11:53 AM 82.0 °F 86.3 °F 71.1 °F 69% 30.12 in 10.0 mi Calm Calm - N/A   Mostly Cloudy
12:17 PM 80.6 °F 83.9 °F 69.8 °F 70% 30.14 in 10.0 mi Calm Calm - N/A   Mostly Cloudy
12:53 PM 84.0 °F 87.8 °F 69.1 °F 61% 30.11 in 10.0 mi Calm Calm - N/A   Mostly Cloudy
1:53 PM 86.0 °F 90.1 °F 69.1 °F 57% 30.09 in 10.0 mi Variable 4.6 mph - N/A   Clear
2:53 PM 84.9 °F 89.4 °F 70.0 °F 61% 30.09 in 10.0 mi Variable 3.5 mph - N/A   Mostly Cloudy
3:53 PM 87.1 °F 91.3 °F 69.1 °F 55% 30.06 in 10.0 mi SW 4.6 mph - N/A   Partly Cloudy
4:53 PM 86.0 °F 91.5 °F 71.1 °F 61% 30.06 in 10.0 mi South 10.4 mph - N/A   Partly Cloudy
5:53 PM 82.9 °F 87.5 °F 71.1 °F 67% 30.06 in 10.0 mi SSW 4.6 mph - N/A   Overcast
6:05 PM 80.6 °F 83.9 °F 69.8 °F 70% 30.09 in 10.0 mi SSE 10.4 mph - N/A   Overcast
6:36 PM 78.8 °F - 73.4 °F 83% 30.10 in 10.0 mi West 3.5 mph - 0.00 in   Mostly Cloudy
6:53 PM 78.1 °F - 72.0 °F 81% 30.08 in 10.0 mi SW 6.9 mph - 0.00 in   Overcast
7:53 PM 78.1 °F - 73.0 °F 84% 30.09 in 10.0 mi South 3.5 mph - N/A   Mostly Cloudy
8:53 PM 75.9 °F - 73.0 °F 91% 30.11 in 10.0 mi Calm Calm - N/A   Overcast
9:53 PM 75.0 °F - 73.0 °F 94% 30.12 in 7.0 mi Calm Calm - N/A   Mostly Cloudy
10:16 PM 75.2 °F - 73.4 °F 94% 30.15 in 8.0 mi Calm Calm - N/A   Overcast
10:33 PM 75.2 °F - 73.4 °F 94% 30.15 in 8.0 mi Calm Calm - N/A   Overcast
10:53 PM 75.0 °F - 73.0 °F 94% 30.13 in 7.0 mi Calm Calm - N/A   Overcast
11:17 PM 75.2 °F - 73.4 °F 94% 30.15 in 7.0 mi Calm Calm - N/A   Mostly Cloudy
11:53 PM 75.0 °F - 73.0 °F 94% 30.13 in 8.0 mi Calm Calm - N/A   Overcast